This is the latest recevied weather packets stored in our database for station/object KC8PTQ. If no packets are shown the sender has not sent any weather packets the latest 1 day(s).
| Time | Temp. | Humidity | Pressure | Rain* | Wind** | Luminosity | Snow |
|---|---|---|---|---|---|---|---|
| 1777998954 | 18.89° C | 66% | 1009.2 hPa | 0 mm | 0.89 m/s, 200° | 53 W/m² | - |
| 1777998651 | 19.44° C | 66% | 1009.1 hPa | 0 mm | 1.34 m/s, 292° | 93 W/m² | - |
| 1777998344 | 19.44° C | 65% | 1008.9 hPa | 0 mm | 0.89 m/s, 281° | 97 W/m² | - |
| 1777998041 | 19.44° C | 64% | 1009.3 hPa | 0 mm | 1.34 m/s, 295° | 136 W/m² | - |
| 1777997738 | 19.44° C | 63% | 1009.2 hPa | 0 mm | 1.34 m/s, 287° | 111 W/m² | - |
| 1777997435 | 20° C | 62% | 1009.2 hPa | 0 mm | 1.79 m/s, 250° | 104 W/m² | - |
| 1777997133 | 20° C | 62% | 1009.1 hPa | 0 mm | 1.34 m/s, 234° | 128 W/m² | - |
| 1777996830 | 20° C | 61% | 1009.2 hPa | 0 mm | 1.34 m/s, 320° | 118 W/m² | - |
| 1777996526 | 20.56° C | 61% | 1008.9 hPa | 0 mm | 1.34 m/s, 262° | 181 W/m² | - |
| 1777996223 | 20.56° C | 61% | 1008.9 hPa | 0 mm | 0.45 m/s, 286° | 178 W/m² | - |
| 1777995919 | 20.56° C | 60% | 1008.8 hPa | 0 mm | 1.79 m/s, 244° | 196 W/m² | - |
| 1777995615 | 20.56° C | 61% | 1008.7 hPa | 0 mm | 0.45 m/s, 268° | 314 W/m² | - |
| 1777995313 | 20.56° C | 60% | 1008.7 hPa | 0 mm | 0.89 m/s, 329° | 199 W/m² | - |
| 1777995009 | 20.56° C | 62% | 1008.1 hPa | 0 mm | 0 m/s | 238 W/m² | - |
| 1777994707 | 20.56° C | 62% | 1008.1 hPa | 0 mm | 0.45 m/s, 303° | 211 W/m² | - |
| 1777994402 | 20° C | 62% | 1008.1 hPa | 0 mm | 1.34 m/s, 210° | 274 W/m² | - |
| 1777994097 | 20° C | 63% | 1008.1 hPa | 0 mm | 0.45 m/s, 315° | 246 W/m² | - |
| 1777993795 | 19.44° C | 65% | 1008.1 hPa | 0 mm | 0.89 m/s, 204° | 223 W/m² | - |
| 1777993491 | 19.44° C | 65% | 1008.2 hPa | 0 mm | 2.68 m/s, 255° | 340 W/m² | - |
| 1777993191 | 19.44° C | 67% | 1008.3 hPa | 0 mm | 0.45 m/s, 242° | 268 W/m² | - |
| 1777992889 | 19.44° C | 67% | 1008.4 hPa | 0 mm | 1.79 m/s, 249° | 312 W/m² | - |
| 1777992587 | 19.44° C | 67% | 1008.1 hPa | 0 mm | 0.45 m/s, 239° | 179 W/m² | - |
| 1777992285 | 19.44° C | 67% | 1008.1 hPa | 0 mm | 0.45 m/s, 77° | 164 W/m² | - |
| 1777991982 | 18.89° C | 67% | 1008 hPa | 0 mm | 0.89 m/s, 201° | 194 W/m² | - |
| 1777991680 | 18.89° C | 68% | 1008.1 hPa | 0 mm | 0.45 m/s, 274° | 207 W/m² | - |
* Rain latest hour (hover to see other rain measurements)
** Current wind speed in m/s (hover to see current wind gust speed)